1486008001.15,19779,6.63,72942.5,-11.79,-41.03,-41.41,0,*69
1486008002.46,19780,6.63,72946.0,-11.81,-41.23,-41.55,0,*6F
1486008003.7,19781,6.63,72944.3,-11.79,-41.17,-41.55,0,*6E
1486008004.94,19782,6.69,72950.8,-11.81,-41.17,-41.41,0,*6F
1486008006.19,19783,6.63,72950.0,-11.79,-41.35,-41.99,0,*6C
1486008007.44,19784,6.63,72946.5,-11.79,-41.67,-41.87,0,*63
1486008008.74,19785,6.63,72948.3,-11.81,-41.67,-42.19,0,*61
1486008010.01,19786,6.63,72950.5,-11.79,-41.81,-42.19,0,*6D
1486008011.28,19787,6.63,72952.5,-11.79,-41.81,-42.19,0,*6C
1486008012.54,19788,6.63,72956.8,-11.79,-42.05,-42.45,0,*65
1486008013.81,19789,6.63,72948.8,-11.81,-41.81,-42.37,0,*69
1486008015.06,19790,6.63,72950.8,-11.81,-41.87,-42.37,0,*67
1486008016.36,19791,6.63,72950.8,-11.81,-41.67,-42.19,0,*64
1486008017.6,19792,6.63,72952.8,-11.81,-41.87,-42.25,0,*66
1486008018.83,19793,6.63,72940.8,-11.83,-40.91,-41.11,0,*67
1486008020.09,19794,6.63,72932.8,-11.79,-40.21,-40.59,0,*63
1486008021.37,19795,6.63,72942.8,-11.79,-39.59,-39.79,0,*6F
1486008022.64,19796,6.63,72932.0,-11.79,-39.29,-39.59,0,*69
1486008023.93,19797,6.63,72924.5,-11.73,-39.71,-39.97,0,*6D
1486008025.19,19798,6.63,72904.3,-11.73,-38.97,-39.23,0,*64
1486008026.44,19799,6.63,72890.3,-11.69,-38.85,-38.91,0,*65
1486008027.68,19800,6.63,72912.5,-11.69,-38.49,-38.73,0,*66
1486008028.94,19801,6.63,72914.3,-11.67,-39.23,-39.47,0,*62
1486008030.18,19802,6.63,72896.0,-11.65,-39.29,-39.65,0,*69
1486008031.42,19803,6.63,72868.3,-11.65,-39.29,-39.65,0,*68
1486008032.66,19804,6.63,72868.0,-11.61,-39.35,-39.71,0,*63
1486008033.91,19805,6.63,72888.0,-11.59,-40.15,-40.47,0,*6E
1486008035.14,19806,6.63,72886.8,-11.59,-40.47,-40.73,0,*6D
1486008036.41,19807,6.63,72862.3,-11.59,-40.85,-41.03,0,*64
1486008037.68,19808,6.63,72864.5,-11.59,-40.85,-40.91,0,*61
1486008038.95,19809,6.63,72868.0,-11.61,-40.79,-40.97,0,*6E
1486008040.19,19810,6.63,72876.8,-11.59,-40.73,-41.03,0,*6B
1486008041.46,19811,6.63,72864.5,-11.59,-40.53,-40.85,0,*67
1486008042.72,19812,6.63,72880.5,-11.59,-40.53,-40.85,0,*64
1486008043.96,19813,6.63,72892.8,-11.59,-40.35,-40.65,0,*6B
1486008045.2,19814,6.63,72894.3,-11.59,-40.35,-40.73,0,*6B
1486008046.43,19815,6.63,72896.3,-11.59,-40.47,-40.65,0,*68
1486008047.68,19816,6.63,72892.8,-11.59,-40.15,-40.15,0,*6B
1486008048.97,19817,6.63,72900.5,-11.59,-39.29,-39.29,0,*6A
1486008050.21,19818,6.63,72908.3,-11.57,-39.85,-40.09,0,*61
1486008051.42,19819,6.63,72908.3,-11.57,-40.35,-40.65,0,*6F
1486008052.63,19820,6.63,72904.0,-11.57,-40.47,-40.73,0,*67
1486008053.85,19821,6.63,72910.3,-11.57,-40.35,-40.53,0,*61
1486008055.08,19822,6.63,72914.0,-11.57,-40.29,-40.15,0,*6D
1486008056.33,19823,6.63,72918.0,-11.57,-40.15,-39.71,0,*6F
1486008057.59,19824,6.63,72904.0,-11.57,-39.15,-39.29,0,*6B
1486008058.86,19825,6.63,72906.5,-11.55,-39.03,-39.65,0,*67
1486008060.11,19826,6.63,72898.0,-11.57,-39.79,-40.35,0,*60
1486008061.32,19827,6.63,72900.3,-11.57,-40.35,-40.73,0,*65
1486008062.61,19828,6.63,72904.3,-11.55,-40.59,-40.97,0,*68
1486008063.88,19829,6.63,72922.0,-11.55,-40.65,-40.85,0,*65
1486008065.12,19830,6.63,72930.8,-11.55,-41.03,-41.41,0,*65
1486008066.36,19831,6.69,72930.3,-11.55,-39.85,-40.03,0,*62
1486008067.63,19832,6.63,72922.5,-11.55,-40.03,-40.41,0,*67
1486008068.92,19833,6.63,72916.0,-11.51,-40.21,-40.41,0,*62
1486008070.18,19834,6.63,72906.8,-11.49,-40.21,-40.59,0,*65
1486008071.42,19835,6.69,72918.5,-11.49,-40.35,-40.59,0,*61
1486008072.68,19836,6.63,72914.5,-11.51,-40.85,-41.03,0,*6E
1486008073.95,19837,6.63,72926.5,-11.51,-40.47,-40.85,0,*6E
1486008075.16,19838,6.69,72922.8,-11.49,-40.35,-40.73,0,*64
1486008076.4,19839,6.69,72932.0,-11.49,-40.59,-40.91,0,*63
1486008077.64,19840,6.63,72934.5,-11.49,-41.17,-41.55,0,*6F
1486008078.88,19841,6.63,72940.3,-11.49,-40.79,-41.11,0,*67
1486008080.11,19842,6.63,72926.5,-11.51,-41.17,-41.17,0,*62
1486008081.38,19843,6.69,72924.3,-11.51,-41.03,-41.23,0,*61
1486008082.63,19844,6.63,72920.3,-11.49,-40.91,-41.35,0,*62
1486008083.85,19845,6.63,72924.8,-11.51,-41.29,-41.61,0,*69
1486008085.12,19846,6.69,72928.5,-11.51,-41.23,-41.49,0,*6A
1486008086.38,19847,6.63,72926.5,-11.51,-41.29,-41.67,0,*6D
1486008087.61,19848,6.69,72934.5,-11.51,-41.29,-41.87,0,*6C
1486008088.85,19849,6.69,72934.3,-11.51,-41.49,-41.99,0,*64
1486008090.09,19850,6.69,72938.3,-11.51,-41.41,-41.99,0,*64
1486008091.33,19851,6.63,72938.3,-11.51,-41.41,-41.87,0,*6A
1486008092.59,19852,6.63,72934.8,-11.51,-41.87,-42.19,0,*67
1486008093.83,19853,6.63,72936.5,-11.55,-41.87,-42.37,0,*6E
1486008095.09,19854,6.63,72938.8,-11.57,-41.93,-42.45,0,*6B
1486008096.35,19855,6.63,72938.5,-11.55,-41.99,-42.45,0,*62
1486008097.59,19856,6.63,72938.0,-11.57,-42.13,-42.45,0,*62
1486008098.86,19857,6.63,72938.0,-11.59,-41.93,-42.25,0,*60
1486008100.1,19858,6.69,72940.5,-11.59,-41.87,-42.25,0,*6A
1486008101.34,19859,6.69,72940.0,-11.61,-41.61,-42.19,0,*67
1486008102.6,19860,6.63,72932.3,-11.59,-41.49,-41.93,0,*6D
1486008103.84,19861,6.63,72928.0,-11.61,-41.29,-41.55,0,*6B
1486008105.1,19862,6.69,72940.5,-11.61,-41.35,-41.81,0,*6C
1486008106.37,19863,6.63,72936.3,-11.59,-41.35,-41.87,0,*60
1486008107.64,19864,6.63,72930.8,-11.61,-40.41,-40.59,0,*6C
1486008108.88,19865,6.63,72924.0,-11.59,-39.85,-40.03,0,*6F
1486008110.13,19866,6.63,72926.0,-11.59,-39.91,-40.15,0,*6E
1486008111.34,19867,6.63,72916.0,-11.57,-40.03,-40.15,0,*64
1486008112.6,19868,6.63,72926.5,-11.57,-39.53,-39.71,0,*6C
1486008113.87,19869,6.69,72930.3,-11.55,-40.79,-41.03,0,*63
1486008115.13,19870,6.69,72936.3,-11.55,-40.65,-40.85,0,*69
1486008116.34,19871,6.63,72934.5,-11.57,-40.65,-40.91,0,*6F
1486008117.55,19872,6.63,72940.0,-11.57,-40.53,-40.73,0,*65
1486008118.81,19873,6.63,72944.8,-11.55,-40.21,-40.47,0,*64
1486008120.09,19874,6.63,72948.5,-11.51,-40.29,-40.41,0,*69
1486008121.33,19875,6.69,72954.8,-11.51,-40.47,-40.65,0,*66
1486008122.58,19876,6.63,72948.3,-11.51,-40.29,-40.47,0,*6D
1486008123.87,19877,6.63,72952.3,-11.51,-40.21,-40.41,0,*62
1486008125.12,19878,6.69,72950.3,-11.49,-40.15,-40.41,0,*63
1486008126.36,19879,6.69,72946.3,-11.49,-40.41,-40.73,0,*62
1486008127.6,19880,6.63,72932.8,-11.49,-40.59,-40.91,0,*61
1486008128.81,19881,6.63,72928.0,-11.49,-40.53,-40.91,0,*6A
1486008130.06,19882,6.63,72918.5,-11.49,-41.35,-41.73,0,*65
1486008131.3,19883,6.63,72918.8,-11.49,-41.23,-41.41,0,*62
1486008132.56,19884,6.63,72916.5,-11.49,-41.35,-41.81,0,*6E
1486008133.85,19885,6.69,72924.0,-11.51,-41.67,-42.05,0,*6E
1486008135.11,19886,6.69,72930.5,-11.51,-41.17,-41.23,0,*6D
1486008136.37,19887,6.63,72924.5,-11.51,-41.29,-41.55,0,*60
1486008137.6,19888,6.69,72928.0,-11.49,-41.41,-41.93,0,*62
1486008138.84,19889,6.63,72924.3,-11.51,-41.49,-41.99,0,*68
1486008140.1,19890,6.69,72926.3,-11.51,-41.87,-42.05,0,*64
1486008141.34,19891,6.63,72924.3,-11.51,-41.87,-42.25,0,*67
1486008142.58,19892,6.63,72928.3,-11.55,-41.87,-42.25,0,*60
1486008143.85,19893,6.63,72926.5,-11.55,-41.81,-42.25,0,*67
1486008145.15,19894,6.63,72928.3,-11.55,-41.67,-42.19,0,*67
1486008146.41,19895,6.69,72934.5,-11.57,-41.93,-42.31,0,*65
1486008147.62,19896,6.63,72936.8,-11.57,-41.73,-42.25,0,*6D
1486008148.86,19897,6.63,72936.5,-11.57,-42.05,-42.51,0,*6D
1486008150.12,19898,6.69,72934.8,-11.59,-41.49,-41.93,0,*6A
1486008151.39,19899,6.63,72946.5,-11.59,-41.35,-41.73,0,*6E
1486008152.66,19900,6.63,72942.3,-11.61,-41.55,-42.19,0,*6D
1486008153.92,19901,6.63,72928.0,-11.61,-41.55,-41.81,0,*6E
1486008155.16,19902,6.63,72928.3,-11.61,-41.35,-41.61,0,*65
1486008156.39,19903,6.63,72906.5,-11.59,-40.35,-40.73,0,*6C
1486008157.64,19904,6.63,72894.5,-11.59,-40.73,-40.91,0,*65
1486008158.9,19905,6.63,72890.8,-11.59,-40.53,-40.85,0,*63
1486008160.14,19906,6.69,72894.0,-11.57,-40.65,-40.85,0,*6B
1486008161.36,19907,6.69,72898.3,-11.57,-40.91,-41.11,0,*6D
1486008162.58,19908,6.63,72906.8,-11.57,-41.03,-41.11,0,*68
1486008163.85,19909,6.63,72908.8,-11.57,-41.35,-41.55,0,*6C
1486008165.12,19910,6.63,72910.0,-11.55,-41.03,-41.23,0,*62
1486008166.38,19911,6.63,72908.3,-11.55,-41.23,-41.49,0,*6D
1486008167.66,19912,6.63,72918.5,-11.57,-41.35,-41.67,0,*67
1486008168.92,19913,6.63,72916.8,-11.55,-41.29,-41.67,0,*69
1486008170.18,19914,6.69,72918.8,-11.57,-41.55,-42.05,0,*60
1486008171.42,19915,6.63,72918.3,-11.57,-41.29,-41.67,0,*6D
1486008172.69,19916,6.63,72926.3,-11.57,-41.67,-42.05,0,*63
1486008173.95,19917,6.69,72936.8,-11.55,-42.05,-42.25,0,*65
1486008175.21,19918,6.63,72934.5,-11.57,-42.05,-42.31,0,*6D
1486008176.43,19919,6.63,72926.8,-11.57,-41.49,-41.87,0,*69
1486008177.7,19920,6.63,72934.5,-11.59,-41.23,-41.29,0,*65
1486008179.0,19921,6.63,72930.8,-11.59,-41.35,-41.67,0,*69
1486008180.26,19922,6.69,72934.0,-11.59,-41.73,-42.05,0,*6F
1486008181.52,19923,6.63,72936.5,-11.59,-41.73,-42.05,0,*6E
1486008182.78,19924,6.63,72930.8,-11.59,-41.73,-41.93,0,*65
1486008184.04,19925,6.63,72936.0,-11.59,-41.73,-42.05,0,*68
1486008185.27,19926,6.63,72932.3,-11.61,-41.61,-41.93,0,*6F
1486008186.49,19927,6.69,72932.0,-11.61,-41.41,-41.61,0,*61
1486008187.78,19928,6.69,72920.8,-11.59,-41.35,-41.55,0,*61
1486008189.05,19929,6.63,72912.0,-11.59,-41.11,-41.23,0,*67
1486008190.32,19930,6.63,72928.3,-11.59,-41.03,-41.23,0,*6C
1486008191.55,19931,6.63,72932.3,-11.59,-41.11,-41.49,0,*62
1486008192.82,19932,6.69,72948.8,-11.59,-41.23,-41.49,0,*60
1486008194.05,19933,6.63,72948.5,-11.59,-41.29,-41.61,0,*61
1486008195.32,19934,6.63,72938.8,-11.61,-41.23,-41.35,0,*66
1486008196.56,19935,6.63,72884.8,-11.61,-40.41,-40.73,0,*61
1486008197.8,19936,6.69,72882.0,-11.59,-40.35,-40.47,0,*6D
1486008199.1,19937,6.63,72864.3,-11.59,-39.71,-39.71,0,*69
1486008200.33,19938,6.63,72872.3,-11.57,-40.29,-40.47,0,*60
1486008201.62,19939,6.63,72886.8,-11.55,-39.97,-39.97,0,*6B
1486008202.86,19940,6.63,72890.5,-11.57,-39.65,-39.71,0,*62
1486008204.12,19941,6.63,72886.3,-11.55,-40.47,-40.79,0,*69
1486008205.38,19942,6.63,72894.0,-11.55,-40.47,-40.79,0,*6A
1486008206.67,19943,6.63,72912.5,-11.51,-40.29,-40.59,0,*65
1486008207.95,19944,6.63,72916.3,-11.51,-40.59,-40.79,0,*67
1486008209.24,19945,6.63,72924.5,-11.51,-40.59,-40.97,0,*66
1486008210.53,19946,6.63,72926.5,-11.51,-40.59,-40.97,0,*65
1486008211.83,19947,6.63,72926.8,-11.55,-40.29,-40.85,0,*64
1486008213.12,19948,6.63,72924.8,-11.55,-40.41,-40.85,0,*65
1486008214.41,19949,6.63,72930.5,-11.51,-40.79,-41.23,0,*66
1486008215.65,19950,6.63,72930.0,-11.55,-41.03,-41.49,0,*6A
1486008216.89,19951,6.63,72934.3,-11.57,-41.11,-41.67,0,*66
1486008218.13,19952,6.63,72934.5,-11.55,-41.29,-41.99,0,*6D
1486008219.36,19953,6.63,72936.5,-11.57,-41.55,-42.13,0,*64
1486008220.6,19954,6.63,72934.8,-11.57,-41.67,-42.25,0,*67
1486008221.84,19955,6.63,72940.8,-11.57,-41.55,-42.13,0,*62
1486008223.08,19956,6.63,72940.8,-11.57,-41.67,-42.13,0,*60
1486008224.31,19957,6.63,72938.0,-11.57,-41.93,-42.25,0,*6F
1486008225.55,19958,6.63,72930.5,-11.59,-41.73,-42.13,0,*65
1486008226.82,19959,6.69,72932.3,-11.59,-41.87,-42.31,0,*6F
1486008228.06,19960,6.69,72934.3,-11.61,-41.73,-42.19,0,*6F
1486008229.35,19961,6.69,72938.3,-11.59,-41.93,-42.45,0,*62
1486008230.56,19962,6.69,72938.0,-11.61,-41.99,-42.37,0,*65
1486008231.8,19963,6.69,72932.8,-11.59,-41.87,-42.25,0,*63
1486008233.02,19964,6.69,72932.5,-11.61,-41.99,-42.51,0,*63
1486008234.29,19965,6.69,72932.0,-11.65,-41.81,-42.19,0,*63
1486008235.56,19966,6.63,72930.5,-11.67,-41.61,-42.19,0,*6C
1486008236.8,19967,6.63,72936.3,-11.67,-41.87,-42.25,0,*6A
1486008238.04,19968,6.69,72936.3,-11.65,-41.67,-41.99,0,*6D
1486008239.29,19969,6.63,72930.0,-11.65,-40.79,-41.03,0,*61
1486008240.51,19970,6.63,72910.3,-11.61,-40.91,-41.11,0,*68
1486008241.75,19971,6.63,72902.8,-11.61,-40.73,-40.97,0,*6A
1486008242.97,19972,6.69,72902.5,-11.61,-40.91,-41.11,0,*6A
1486008244.24,19973,6.63,72900.3,-11.61,-40.97,-40.97,0,*62
1486008245.51,19974,6.63,72906.0,-11.59,-40.85,-41.03,0,*61
1486008246.75,19975,6.69,72920.3,-11.61,-40.97,-41.11,0,*6B
1486008247.96,19976,6.69,72930.3,-11.61,-41.11,-41.17,0,*61
1486008249.26,19977,6.63,72926.0,-11.59,-41.23,-41.23,0,*6D
1486008250.53,19978,6.63,72928.0,-11.59,-41.35,-41.73,0,*60
1486008251.74,19979,6.69,72928.8,-11.61,-41.61,-42.13,0,*6E
1486008253.01,19980,6.63,72932.3,-11.61,-41.81,-42.19,0,*6C
1486008254.27,19981,6.63,72932.3,-11.61,-41.93,-42.19,0,*6E
1486008255.52,19982,6.63,72928.5,-11.65,-41.67,-42.25,0,*6D
1486008256.81,19983,6.63,72928.3,-11.67,-41.67,-42.05,0,*6C
1486008258.05,19984,6.63,72930.5,-11.65,-41.67,-41.99,0,*6F
1486008259.34,19985,6.63,72930.3,-11.67,-41.81,-42.05,0,*62
1486008260.64,19986,6.63,72926.8,-11.67,-41.81,-42.19,0,*6C
1486008261.85,19987,6.63,72928.3,-11.65,-41.99,-42.25,0,*69
1486008263.1,19988,6.63,72926.8,-11.65,-41.41,-41.67,0,*66
1486008264.34,19989,6.69,72932.0,-11.65,-40.47,-40.59,0,*6C
1486008265.56,19990,6.69,72932.8,-11.65,-40.47,-40.65,0,*6B
1486008266.82,19991,6.63,72934.3,-11.65,-40.21,-40.59,0,*65
1486008268.06,19992,6.63,72932.5,-11.67,-40.47,-40.65,0,*6B
1486008269.33,19993,6.63,72938.0,-11.65,-40.79,-40.97,0,*68
1486008270.54,19994,6.63,72934.8,-11.65,-41.41,-41.61,0,*6D
1486008271.84,19995,6.69,72936.8,-11.67,-41.23,-41.23,0,*6C
1486008273.14,19996,6.63,72932.0,-11.67,-41.23,-41.23,0,*6F
1486008274.36,19997,6.63,72932.5,-11.69,-41.41,-41.29,0,*6E
1486008275.57,19998,6.63,72938.8,-11.69,-41.11,-41.11,0,*6F
1486008276.82,19999,6.63,72938.5,-11.69,-41.23,-41.49,0,*62
1486008278.06,20000,6.63,72938.3,-11.69,-41.23,-41.73,0,*68
1486008279.31,20001,6.63,72936.3,-11.69,-40.85,-41.03,0,*63
1486008280.56,20002,6.63,72926.3,-11.69,-41.23,-41.41,0,*6B
1486008281.77,20003,6.63,72924.0,-11.69,-41.11,-41.29,0,*65
1486008283.04,20004,6.63,72914.8,-11.67,-40.85,-41.03,0,*68
1486008284.28,20005,6.63,72904.8,-11.65,-40.85,-41.17,0,*6E
1486008285.53,20006,6.63,72922.3,-11.65,-41.17,-41.35,0,*67
1486008286.77,20007,6.63,72926.8,-11.67,-41.17,-41.41,0,*67
1486008288.07,20008,6.63,72926.3,-11.67,-41.35,-41.67,0,*6C
1486008289.34,20009,6.63,72932.3,-11.65,-41.81,-42.19,0,*6A
1486008290.6,20010,6.69,72928.0,-11.67,-41.49,-41.81,0,*66
1486008291.87,20011,6.63,72922.0,-11.67,-41.17,-41.23,0,*64
1486008293.08,20012,6.69,72928.5,-11.65,-41.41,-41.61,0,*60
1486008294.33,20013,6.63,72930.0,-11.65,-41.41,-41.67,0,*67
1486008295.6,20014,6.63,72934.0,-11.65,-41.23,-41.23,0,*64
1486008296.82,20015,6.63,72922.5,-11.61,-41.17,-41.29,0,*6C
1486008298.05,20016,6.63,72926.0,-11.61,-41.29,-41.35,0,*6F
1486008299.29,20017,6.63,72928.5,-11.61,-41.29,-41.35,0,*6E
1486008300.5,20018,6.63,72936.3,-11.65,-41.49,-41.61,0,*62
1486008301.72,20019,6.63,72932.5,-11.65,-41.17,-41.41,0,*6A
1486008302.96,20020,6.63,72924.0,-11.65,-40.97,-41.17,0,*6A
1486008304.23,20021,6.63,72930.3,-11.65,-40.97,-40.97,0,*62
1486008305.48,20022,6.63,72926.5,-11.65,-40.97,-41.17,0,*68
1486008306.69,20023,6.63,72924.0,-11.61,-41.11,-41.29,0,*6F
1486008307.9,20024,6.69,72928.3,-11.61,-41.41,-41.73,0,*62
1486008309.14,20025,6.63,72934.8,-11.61,-41.81,-42.13,0,*6A
1486008310.41,20026,6.63,72922.5,-11.61,-41.81,-42.31,0,*69
1486008311.67,20027,6.63,72926.5,-11.61,-41.93,-42.19,0,*61
1486008312.94,20028,6.69,72922.8,-11.59,-41.55,-41.87,0,*6B
1486008314.21,20029,6.63,72918.5,-11.61,-41.35,-41.55,0,*68
1486008315.44,20030,6.63,72926.5,-11.59,-41.29,-41.49,0,*6B
1486008316.66,20031,6.69,72928.3,-11.61,-41.41,-41.61,0,*65
1486008317.94,20032,6.63,72924.3,-11.59,-41.55,-42.05,0,*69
1486008319.18,20033,6.63,72920.8,-11.61,-41.35,-41.61,0,*64
1486008320.42,20034,6.63,72920.3,-11.61,-41.17,-41.35,0,*62
1486008321.71,20035,6.63,72922.0,-11.59,-41.55,-42.05,0,*6E
1486008322.92,20036,6.69,72924.0,-11.61,-41.73,-42.13,0,*65
1486008324.13,20037,6.69,72926.3,-11.61,-41.73,-42.13,0,*64
1486008325.37,20038,6.63,72924.3,-11.61,-41.55,-41.73,0,*6A
1486008326.61,20039,6.63,72920.0,-11.61,-41.35,-41.73,0,*6D
1486008327.85,20040,6.63,72926.8,-11.61,-41.41,-41.93,0,*6E
1486008329.08,20041,6.63,72930.3,-11.61,-41.29,-41.67,0,*6A
1486008330.3,20042,6.63,72924.0,-11.61,-41.17,-41.29,0,*6E
1486008331.54,20043,6.63,72910.0,-11.61,-40.91,-41.23,0,*6A
1486008332.83,20044,6.69,72898.5,-11.59,-41.67,-42.05,0,*69
1486008334.12,20045,6.69,72914.3,-11.59,-41.55,-42.05,0,*69
1486008335.39,20046,6.63,72910.5,-11.61,-41.93,-42.19,0,*66
1486008336.65,20047,6.63,72916.8,-11.61,-41.81,-42.19,0,*64
1486008337.92,20048,6.63,72928.5,-11.61,-41.67,-42.05,0,*6E
1486008339.15,20049,6.63,72916.3,-11.61,-41.41,-41.81,0,*64
1486008340.37,20050,6.63,72922.3,-11.61,-41.61,-42.13,0,*66
1486008341.58,20051,6.63,72924.5,-11.61,-41.73,-42.13,0,*64
1486008342.81,20052,6.63,72928.0,-11.65,-42.05,-42.37,0,*67
1486008344.05,20053,6.63,72924.3,-11.65,-42.37,-42.69,0,*6C
1486008345.29,20054,6.63,72938.0,-11.61,-42.13,-42.57,0,*64
1486008346.56,20055,6.63,72932.3,-11.65,-42.19,-42.57,0,*6B
1486008347.8,20056,6.63,72928.3,-11.65,-42.25,-42.69,0,*6A
1486008349.07,20057,6.63,72920.0,-11.67,-42.25,-42.57,0,*64
1486008350.34,20058,6.63,72928.3,-11.67,-41.81,-42.25,0,*63
1486008351.55,20059,6.69,72934.8,-11.65,-41.87,-42.37,0,*65
1486008352.77,20060,6.63,72928.8,-11.65,-41.61,-41.99,0,*60
1486008354.03,20061,6.69,72936.3,-11.67,-41.49,-42.05,0,*6F
1486008355.25,20062,6.63,72932.5,-11.65,-41.99,-42.25,0,*61
1486008356.49,20063,6.63,72932.5,-11.67,-41.87,-42.37,0,*6E
1486008357.78,20064,6.63,72926.3,-11.67,-42.45,-42.69,0,*6F
1486008359.07,20065,6.63,72932.5,-11.67,-41.81,-42.05,0,*6F
1486008360.33,20066,6.63,72928.8,-11.67,-41.99,-42.19,0,*68
1486008361.55,20067,6.63,72936.3,-11.69,-42.25,-42.51,0,*6F
1486008362.82,20068,6.63,72934.5,-11.69,-42.31,-42.69,0,*6E
1486008364.07,20069,6.69,72930.5,-11.69,-42.05,-42.51,0,*63
1486008365.28,20070,6.63,72916.3,-11.69,-41.41,-41.73,0,*6B
1486008366.53,20071,6.63,72922.3,-11.69,-41.41,-41.67,0,*6F
1486008367.78,20072,6.63,72930.0,-11.69,-41.93,-42.25,0,*66
1486008369.02,20073,6.63,72930.8,-11.69,-41.93,-42.25,0,*67
1486008370.26,20074,6.63,72924.0,-11.69,-41.55,-41.87,0,*61
1486008371.51,20075,6.63,72928.0,-11.69,-41.23,-41.41,0,*6B
1486008372.75,20076,6.63,72928.3,-11.67,-41.49,-41.87,0,*60
1486008374.0,20077,6.63,72930.8,-11.67,-41.61,-41.87,0,*6B
1486008375.24,20078,6.63,72930.5,-11.69,-41.67,-42.25,0,*67
1486008376.51,20079,6.63,72930.8,-11.67,-41.99,-42.19,0,*66
1486008377.74,20080,6.63,72934.0,-11.67,-41.99,-42.37,0,*6C
1486008378.97,20081,6.63,72938.5,-11.69,-42.25,-42.63,0,*66
1486008380.22,20082,6.63,72942.5,-11.69,-42.31,-42.51,0,*61
1486008381.5,20083,6.69,72944.8,-11.71,-42.13,-42.31,0,*6F
1486008382.72,20084,6.63,72936.8,-11.69,-42.13,-42.51,0,*67
1486008383.97,20085,6.63,72938.5,-11.69,-42.13,-42.31,0,*60
1486008385.25,20086,6.63,72932.3,-11.71,-41.67,-41.87,0,*64
1486008386.49,20087,6.63,72938.0,-11.69,-41.93,-42.25,0,*6C
1486008387.75,20088,6.63,72934.8,-11.69,-42.05,-42.45,0,*69
1486008389.01,20089,6.63,72936.3,-11.69,-42.05,-42.45,0,*68
1486008390.3,20090,6.63,72938.3,-11.71,-42.05,-42.45,0,*69
1486008391.6,20091,6.63,72942.5,-11.71,-41.93,-42.45,0,*64
1486008392.87,20092,6.63,72942.5,-11.71,-42.13,-42.45,0,*6C
1486008394.14,20093,6.63,72944.0,-11.71,-42.51,-42.69,0,*65
1486008395.39,20094,6.63,72952.5,-11.71,-42.51,-42.89,0,*6C
1486008396.67,20095,6.63,72934.5,-11.73,-42.31,-42.57,0,*6A
1486008397.97,20096,6.63,72924.5,-11.71,-42.05,-42.31,0,*6C
1486008399.21,20097,6.63,72918.8,-11.75,-41.81,-41.99,0,*67
1486008400.47,20098,6.63,72922.5,-11.73,-41.73,-41.93,0,*69
1486008401.73,20099,6.63,72926.3,-11.73,-41.81,-42.13,0,*6E
1486008403.03,20100,6.63,72934.8,-11.73,-41.81,-42.19,0,*65
1486008404.29,20101,6.63,72932.8,-11.75,-41.81,-42.19,0,*62
1486008405.58,20102,6.63,72934.0,-11.73,-42.19,-42.57,0,*6F
1486008406.82,20103,6.63,72936.8,-11.73,-42.13,-42.37,0,*62
1486008408.09,20104,6.63,72942.0,-11.73,-42.19,-42.51,0,*6F
1486008409.33,20105,6.63,72944.8,-11.75,-41.81,-42.13,0,*6C
1486008410.6,20106,6.63,72940.0,-11.75,-42.19,-42.57,0,*6D
1486008411.86,20107,6.63,72940.3,-11.73,-42.31,-42.51,0,*66
1486008413.14,20108,6.63,72938.3,-11.71,-42.45,-42.63,0,*69
1486008414.41,20109,6.63,72936.8,-11.75,-42.31,-42.69,0,*65
1486008415.64,20110,6.63,72934.3,-11.73,-41.99,-42.37,0,*61
1486008416.91,20111,6.63,72936.5,-11.73,-42.19,-42.51,0,*6B
1486008418.18,20112,6.63,72936.3,-11.75,-42.57,-42.95,0,*6C
1486008419.42,20113,6.63,72942.8,-11.73,-42.51,-42.75,0,*63
1486008420.67,20114,6.63,72946.5,-11.73,-42.37,-42.75,0,*64
1486008421.89,20115,6.63,72948.0,-11.75,-42.51,-42.75,0,*63
1486008423.17,20116,6.63,72950.3,-11.73,-42.31,-42.57,0,*60
1486008424.42,20117,6.63,72954.0,-11.81,-42.37,-42.63,0,*6D
1486008425.66,20118,6.63,72948.0,-11.75,-42.51,-42.57,0,*6E
1486008426.88,20119,6.69,72946.0,-11.79,-41.41,-41.61,0,*67
1486008428.1,20120,6.63,72938.3,-11.79,-41.61,-41.99,0,*68
1486008429.33,20121,6.63,72942.5,-11.75,-42.05,-42.37,0,*63
1486008430.6,20122,6.69,72954.3,-11.79,-42.19,-42.45,0,*64
1486008431.82,20123,6.69,72958.5,-11.75,-42.13,-42.37,0,*66
1486008433.06,20124,6.63,72950.8,-11.81,-41.41,-41.61,0,*6E
1486008434.28,20125,6.63,72938.8,-11.75,-40.15,-40.35,0,*64
1486008435.53,20126,6.63,72932.5,-11.73,-40.91,-41.11,0,*6A
1486008436.79,20127,6.63,72932.3,-11.75,-41.35,-41.81,0,*6B
1486008438.06,20128,6.63,72934.5,-11.73,-41.81,-42.13,0,*65
1486008439.3,20129,6.69,72932.5,-11.73,-41.61,-41.99,0,*6B
1486008440.53,20130,6.63,72926.8,-11.73,-41.73,-41.99,0,*60
1486008441.79,20131,6.63,72922.5,-11.73,-41.81,-42.13,0,*6D
1486008443.09,20132,6.63,72932.5,-11.73,-41.93,-42.31,0,*6D
1486008444.3,20133,6.63,72934.3,-11.75,-41.73,-42.13,0,*64
1486008445.58,20134,6.63,72932.3,-11.73,-41.55,-41.81,0,*69
1486008446.83,20135,6.63,72922.0,-11.73,-40.91,-40.91,0,*61
1486008448.08,20136,6.63,72912.8,-11.73,-40.91,-41.11,0,*6B
1486008449.34,20137,6.63,72906.5,-11.73,-40.59,-40.73,0,*6B
1486008450.58,20138,6.63,72902.8,-11.71,-40.35,-40.35,0,*6E
1486008451.79,20139,6.63,72906.3,-11.69,-40.47,-40.47,0,*66
1486008453.04,20140,6.63,72912.0,-11.69,-40.65,-40.85,0,*66
1486008454.25,20141,6.63,72926.0,-11.69,-41.29,-41.41,0,*67
1486008455.51,20142,6.63,72934.5,-11.69,-41.55,-42.05,0,*6C
1486008456.73,20143,6.63,72932.3,-11.69,-41.73,-42.25,0,*6B
1486008457.95,20144,6.63,72924.0,-11.69,-41.49,-41.73,0,*65
1486008459.19,20145,6.63,72934.8,-11.69,-41.67,-42.13,0,*6D
1486008460.46,20146,6.63,72940.0,-11.69,-41.93,-42.31,0,*65
1486008461.73,20147,6.63,72934.0,-11.69,-41.93,-42.31,0,*64
1486008462.94,20148,6.63,72926.5,-11.69,-41.29,-41.49,0,*66
1486008464.17,20149,6.63,72912.3,-11.69,-40.91,-41.11,0,*68
1486008465.39,20150,6.63,72902.5,-11.69,-40.73,-41.03,0,*6F
1486008466.66,20151,6.63,72896.3,-11.67,-40.15,-40.29,0,*69
1486008467.93,20152,6.63,72900.3,-11.65,-40.59,-40.85,0,*66
1486008469.15,20153,6.63,72910.5,-11.65,-41.17,-41.17,0,*66
1486008470.36,20154,6.63,72926.3,-11.65,-41.49,-41.87,0,*63
1486008471.63,20155,6.69,72924.0,-11.67,-41.17,-41.23,0,*65
1486008472.87,20156,6.63,72924.8,-11.65,-41.17,-41.23,0,*64
1486008474.11,20157,6.63,72922.8,-11.65,-40.97,-41.17,0,*6B
1486008475.39,20158,6.63,72920.8,-11.65,-41.23,-41.67,0,*6D
1486008476.65,20159,6.63,72928.3,-11.65,-41.81,-42.05,0,*63
1486008477.87,20160,6.63,72928.8,-11.65,-41.87,-42.25,0,*6D
1486008479.14,20161,6.69,72928.3,-11.65,-41.67,-42.05,0,*60
1486008480.41,20162,6.63,72922.3,-11.65,-42.19,-42.45,0,*6D
1486008481.68,20163,6.63,72920.0,-11.65,-42.19,-42.45,0,*6C
1486008482.89,20164,6.63,72924.5,-11.65,-41.99,-42.25,0,*66
1486008484.18,20165,6.63,72930.3,-11.67,-42.19,-42.45,0,*68
1486008485.42,20166,6.63,72928.3,-11.67,-41.99,-42.37,0,*65
1486008486.66,20167,6.63,72936.8,-11.67,-41.99,-42.25,0,*67
1486008487.91,20168,6.63,72932.8,-11.67,-42.25,-42.63,0,*6E
1486008489.17,20169,6.63,72934.0,-11.67,-42.25,-42.45,0,*6B
1486008490.44,20170,6.63,72942.3,-11.67,-42.05,-42.37,0,*64
1486008491.68,20171,6.63,72938.8,-11.69,-41.55,-41.87,0,*65
1486008492.95,20172,6.63,72938.0,-11.67,-41.41,-41.67,0,*63
1486008494.2,20173,6.69,72942.8,-11.69,-41.11,-41.23,0,*69
1486008495.44,20174,6.63,72930.5,-11.69,-41.11,-41.23,0,*6E
1486008496.73,20175,6.63,72928.0,-11.67,-40.79,-40.97,0,*60
1486008497.97,20176,6.63,72924.3,-11.65,-40.79,-41.03,0,*6D
1486008499.22,20177,6.63,72930.0,-11.65,-40.47,-40.97,0,*6D
1486008500.46,20178,6.63,72932.8,-11.65,-41.23,-41.61,0,*69